Simultaneous Nadir Overpasses (SNOs) Predictions

Prediction of SNOs between AQUA and NOAA-19 Satellite Orbit:

Table of predicted SNOs for the next 14.0 days since TLE Epoch: 11/2/2012
Index Date (AQUA) Time (AQUA) AQUA Lat,Lon Date (NOAA-19) Time (NOAA-19) NOAA-19 Lat,Lon Distance(km) Time Diff (sec)
1 11/02/2012 17:31:19 -46.01, -50.48 11/02/2012 17:30:33 -45.90, -49.92 44.95 46
2 11/02/2012 18:19:58 48.64, 118.19 11/02/2012 18:20:42 48.60, 118.46 20.84 44
3 11/04/2012 22:15:31 -46.03,-121.53 11/04/2012 22:15:05 -45.93,-121.04 39.22 26
4 11/04/2012 23:03:50 49.84, 47.63 11/04/2012 23:04:54 49.80, 47.86 17.43 64
5 11/07/2012 02:59:42 -46.04, 167.43 11/07/2012 02:59:37 -45.94, 167.84 33.29 5
6 11/07/2012 03:42:05 70.40, -7.95 11/07/2012 03:43:18 70.21, -6.74 50.21 73
7 11/09/2012 07:43:36 -46.99, 96.75 11/09/2012 07:43:52 -46.91, 97.10 28.46 16
8 11/09/2012 08:14:57 65.54, 61.67 11/09/2012 08:16:09 65.22, 59.81 93.49 72
9 11/11/2012 11:38:31 46.05,-142.27 11/11/2012 11:37:34 45.93,-141.64 50.55 57
10 11/11/2012 12:27:23 -48.28, 26.22 11/11/2012 12:28:01 -48.20, 26.52 24.32 38
11 11/13/2012 16:22:39 46.03, 146.69 11/13/2012 16:22:06 45.92, 147.23 43.56 33
12 11/13/2012 17:11:09 -49.57, -44.29 11/13/2012 17:12:09 -49.53, -44.02 20.06 60
13 11/15/2012 21:06:46 46.01, 75.65 11/15/2012 21:06:38 45.89, 76.10 36.41 8




NCC Satellite Simultaneous Nadir Overpasses (SNOs) Prediction Service
